KLM835 EHAM-WSSS

Flight info

Callsign KLM835
Flight time N/A
Altitude 28000
Route ARNEM DCT REMBA/N0496F290 DCT MATUG DCT GUBAX DCT KOMIB L984 SULUS Z650 VEMUT DCT DITIS DCT ERGOM DCT DINRO/N0491F310 DCT UDROS UM859 KARDE UL851 TBN UR317 REBLO M11 LUSAL N199 BAKUV N701 LARGI B701 TUGTA A909 BABUM A477 AKRAM/N0495F330 R226 MANAT/K0919F330 Z777 INDUD M875 AMDAR/N0500F330 M875 TAPIS L509 LAJAK M881 LAKRA/N0509F320 G325 ZB/N0508F330 G202 RK P628 IBANI L510 PATKA/N0500F350 L510 GIVAL P628 VPL Y503 RINBA Y507 MAKNA Y511 TOPOR A464 ARAMA DCT TEBUN TEBUN1A
Aircraft B77W/H-SDE1E2E3FGHIJ2J3J4J5M1RWXY/LB1D1

Departure

Time 2026-04-30 13:04
Airport Amsterdam Airport Schiphol (EHAM)

Arrival

Time N/A
Airport Singapore Changi Airport (WSSS)
Time Latitude Longitude Altitude Speed Heading
2026-04-30 12:52 52.31299 4.75822 9 ft 0 kts 266°
2026-04-30 12:57 52.31300 4.75840 9 ft 2 kts 275°
2026-04-30 12:57 52.31296 4.75864 9 ft 2 kts 291°
2026-04-30 12:57 52.31290 4.75886 10 ft 2 kts 304°
2026-04-30 12:58 52.31281 4.75905 10 ft 2 kts 316°
2026-04-30 12:58 52.31269 4.75920 10 ft 2 kts 329°
2026-04-30 12:58 52.31256 4.75931 11 ft 2 kts 342°
2026-04-30 12:58 52.31242 4.75936 12 ft 2 kts 354°
2026-04-30 12:59 52.31230 4.75937 12 ft 0 kts
2026-04-30 12:59 52.31229 4.75937 12 ft 0 kts
2026-04-30 12:59 52.31220 4.75935 12 ft 0 kts
2026-04-30 12:59 52.31219 4.75935 12 ft 0 kts
2026-04-30 13:01 52.31220 4.75936 12 ft 1 kts
2026-04-30 13:01 52.31251 4.75937 11 ft 5 kts
2026-04-30 13:01 52.31294 4.75937 9 ft 6 kts
2026-04-30 13:01 52.31498 4.75906 5 ft 5 kts 336°
2026-04-30 13:02 52.31521 4.75828 4 ft 12 kts 269°
2026-04-30 13:02 52.31484 4.74737 0 ft 11 kts 267°
2026-04-30 13:02 52.31521 4.74664 -1 ft 9 kts 360°
2026-04-30 13:02 52.31579 4.74660 -1 ft 9 kts 358°
2026-04-30 13:03 52.31657 4.74709 -1 ft 15 kts 61°
2026-04-30 13:03 52.31678 4.75056 0 ft 59 kts 86°
2026-04-30 13:03 52.31715 4.76070 -2 ft 120 kts 87°
2026-04-30 13:03 52.31773 4.77756 4 ft 174 kts 85°
2026-04-30 13:04 52.31842 4.79841 306 ft 195 kts 85°
2026-04-30 13:04 52.31918 4.82027 1181 ft 192 kts 88°
2026-04-30 13:04 52.31990 4.84098 1873 ft 186 kts 90°
2026-04-30 13:04 52.32003 4.86289 2024 ft 203 kts 99°
2026-04-30 13:05 52.31588 4.88583 2281 ft 216 kts 113°
2026-04-30 13:05 52.30994 4.90795 2843 ft 217 kts 114°
2026-04-30 13:05 52.30375 4.93123 3173 ft 229 kts 113°
2026-04-30 13:06 52.29239 4.98017 4253 ft 235 kts 107°
2026-04-30 13:06 52.28796 5.00594 4821 ft 236 kts 107°
2026-04-30 13:06 52.28353 5.03167 5322 ft 240 kts 107°
2026-04-30 13:06 52.27897 5.05791 5868 ft 241 kts 107°
2026-04-30 13:07 52.27440 5.08415 6389 ft 243 kts 107°
2026-04-30 13:07 52.26975 5.11076 6896 ft 246 kts 107°
2026-04-30 13:07 52.26507 5.13757 7448 ft 248 kts 106°
2026-04-30 13:07 52.26035 5.16453 7962 ft 249 kts 106°
2026-04-30 13:08 52.25555 5.19189 8427 ft 253 kts 106°
2026-04-30 13:08 52.25076 5.21915 8949 ft 255 kts 106°
2026-04-30 13:08 52.24586 5.24709 9425 ft 258 kts 105°
2026-04-30 13:08 52.24308 5.27611 9861 ft 261 kts 96°
2026-04-30 13:09 52.24163 5.30549 10369 ft 261 kts 95°
2026-04-30 13:09 52.24020 5.33531 10711 ft 268 kts 95°
2026-04-30 13:09 52.23871 5.36543 11122 ft 272 kts 95°
2026-04-30 13:09 52.23715 5.39642 11503 ft 277 kts 95°
2026-04-30 13:10 52.23552 5.42843 11618 ft 292 kts 95°
2026-04-30 13:10 52.23380 5.46223 11804 ft 308 kts 95°
2026-04-30 13:10 52.23197 5.49783 11960 ft 323 kts 96°
2026-04-30 13:10 52.22805 5.53445 12134 ft 338 kts 104°
2026-04-30 13:11 52.22025 5.57159 12317 ft 353 kts 110°
2026-04-30 13:11 52.21110 5.60925 12575 ft 365 kts 110°
2026-04-30 13:11 52.20159 5.64818 13029 ft 372 kts 110°
2026-04-30 13:11 52.19206 5.68725 13574 ft 377 kts 111°
2026-04-30 13:12 52.18243 5.72668 14197 ft 377 kts 111°
2026-04-30 13:12 52.17269 5.76659 14815 ft 379 kts 111°
2026-04-30 13:12 52.16298 5.80631 15314 ft 384 kts 110°
2026-04-30 13:13 52.14299 5.88784 16351 ft 392 kts 110°
2026-04-30 13:13 52.13302 5.92842 16886 ft 395 kts 110°
2026-04-30 13:13 52.11199 6.01182 17863 ft 404 kts 115°
2026-04-30 13:14 52.09782 6.05093 18313 ft 410 kts 123°
2026-04-30 13:14 52.07935 6.08690 18799 ft 416 kts 132°
2026-04-30 13:14 52.03292 6.14445 19751 ft 427 kts 143°
2026-04-30 13:15 52.00795 6.17090 20195 ft 432 kts 144°
2026-04-30 13:15 51.95743 6.22426 21092 ft 439 kts 144°
2026-04-30 13:15 51.93186 6.25124 21479 ft 444 kts 144°
2026-04-30 13:16 51.90620 6.27829 21895 ft 447 kts 144°
2026-04-30 13:16 51.87974 6.30614 22286 ft 451 kts 144°
2026-04-30 13:16 51.85369 6.33353 22699 ft 454 kts 144°
2026-04-30 13:17 51.80034 6.38951 23541 ft 460 kts 144°
2026-04-30 13:17 51.77375 6.41736 23907 ft 464 kts 143°
2026-04-30 13:17 51.71925 6.47431 24634 ft 471 kts 144°
2026-04-30 13:18 51.69179 6.50295 25013 ft 474 kts 144°
2026-04-30 13:18 51.63619 6.56080 25771 ft 479 kts 144°